OpenBCM V1.07b12 (Linux)

Packet Radio Mailbox

DB0FHN

[JN59NK Nuernberg]

 Login: GUEST





  
I6KZR  > KEPLER   01.02.03 01:48l 1460 Lines 39195 Bytes #999 (0) @ WW
BID : 21337_IK6WID
Read: DB0FHN GUEST
Subj: Old Istantrak Keplerians #031
Path: DB0FHN<DB0RGB<DB0FSG<I4UKI<IK6ZDE<I6ZLO<IK6WID
Sent: 030131/2343Z @:IK6WID.#AP.IMAR.ITA.EU #:21337 [MONTE URANO]  FBB7.00i
From: I6KZR@IK6WID.#AP.IMAR.ITA.EU
To  : KEPLER@WW


Satellite: OSCAR 7
Catalog number: 07530
Epoch time:      103029.66022485
Element set:     169 
Inclination:      101.7640 deg
RA of node:        77.6313 deg
Eccentricity:    0.0012241
Arg of perigee:   116.2811 deg
Mean anomaly:     243.9516 deg
Mean motion:   12.53564044 rev/day
Decay rate:   -2.9000E-007 rev/day^2
Epoch rev:           29069
Checksum:              278

Satellite: GOES 2
Catalog number: 10061
Epoch time:      103028.56527598
Element set:     70 
Inclination:       14.1264 deg
RA of node:        13.5931 deg
Eccentricity:    0.0013180
Arg of perigee:   196.1337 deg
Mean anomaly:     163.8523 deg
Mean motion:    0.99391768 rev/day
Decay rate:    9.9999E-009 rev/day^2
Epoch rev:            3862
Checksum:              321

Satellite: GOES 3
Catalog number: 10953
Epoch time:      103029.98993037
Element set:     908 
Inclination:       13.4010 deg
RA of node:        17.3809 deg
Eccentricity:    0.0005259
Arg of perigee:   340.2380 deg
Mean anomaly:      19.7720 deg
Mean motion:    1.00278612 rev/day
Decay rate:   -1.0600E-006 rev/day^2
Epoch rev:            4330
Checksum:              371

Satellite: GOES 6
Catalog number: 14050
Epoch time:      103028.11159657
Element set:     417 
Inclination:       10.3721 deg
RA of node:        35.6208 deg
Eccentricity:    0.0003104
Arg of perigee:   350.7939 deg
Mean anomaly:       9.2480 deg
Mean motion:    1.00296104 rev/day
Decay rate:    4.1999E-007 rev/day^2
Epoch rev:           13042
Checksum:              262

Satellite: OSCAR 10
Catalog number: 14129
Epoch time:      103022.69371816
Element set:     912 
Inclination:       25.8918 deg
RA of node:       168.7550 deg
Eccentricity:    0.6038640
Arg of perigee:   321.4060 deg
Mean anomaly:       7.9531 deg
Mean motion:    2.05867100 rev/day
Decay rate:    2.2900E-006 rev/day^2
Epoch rev:           11951
Checksum:              280

Satellite: OSCAR 11 (UoSA
Catalog number: 14781
Epoch time:      103031.53500548
Element set:     58 
Inclination:       98.1145 deg
RA of node:         5.3241 deg
Eccentricity:    0.0008154
Arg of perigee:   270.3558 deg
Mean anomaly:      89.6716 deg
Mean motion:   14.77937947 rev/day
Decay rate:    1.2389E-005 rev/day^2
Epoch rev:            1357
Checksum:              314

Satellite: NOAA 10
Catalog number: 16969
Epoch time:      103030.89806764
Element set:     646 
Inclination:       98.7276 deg
RA of node:        25.0493 deg
Eccentricity:    0.0012896
Arg of perigee:   137.9854 deg
Mean anomaly:     222.2318 deg
Mean motion:   14.27055875 rev/day
Decay rate:    1.2100E-006 rev/day^2
Epoch rev:           85124
Checksum:              329

Satellite: GOES 7
Catalog number: 17561
Epoch time:      103013.52827387
Element set:     810 
Inclination:        7.5470 deg
RA of node:        55.7264 deg
Eccentricity:    0.0004064
Arg of perigee:   288.6625 deg
Mean anomaly:     149.4031 deg
Mean motion:    1.00317770 rev/day
Decay rate:    1.1600E-006 rev/day^2
Epoch rev:            4138
Checksum:              275

Satellite: COSMOS 1861
Catalog number: 18129
Epoch time:      103031.43396828
Element set:     196 
Inclination:       82.9257 deg
RA of node:       159.9653 deg
Eccentricity:    0.0010311
Arg of perigee:   280.7720 deg
Mean anomaly:      79.2273 deg
Mean motion:   13.72699122 rev/day
Decay rate:    7.2000E-007 rev/day^2
Epoch rev:           78202
Checksum:              321

Satellite: EUTELSAT 1-F4 
Catalog number: 18351
Epoch time:      103025.63835885
Element set:     30 
Inclination:        7.1440 deg
RA of node:        58.7787 deg
Eccentricity:    0.0016805
Arg of perigee:   154.8010 deg
Mean anomaly:     205.3117 deg
Mean motion:    0.98686696 rev/day
Decay rate:    4.1999E-007 rev/day^2
Epoch rev:            4244
Checksum:              322

Satellite: NOAA 11
Catalog number: 19531
Epoch time:      103030.83791273
Element set:     484 
Inclination:       98.9040 deg
RA of node:       112.2808 deg
Eccentricity:    0.0010930
Arg of perigee:   255.3310 deg
Mean anomaly:     104.6651 deg
Mean motion:   14.14528569 rev/day
Decay rate:    1.9100E-006 rev/day^2
Epoch rev:           74015
Checksum:              277

Satellite: ASTRA 1A
Catalog number: 19688
Epoch time:      103029.75771711
Element set:     566 
Inclination:        1.3459 deg
RA of node:        94.9986 deg
Eccentricity:    0.0004915
Arg of perigee:   207.7171 deg
Mean anomaly:     103.8285 deg
Mean motion:    1.00273261 rev/day
Decay rate:    2.6000E-007 rev/day^2
Epoch rev:            3199
Checksum:              306

Satellite: OSCAR 14 (UOSA
Catalog number: 20437
Epoch time:      103031.18228598
Element set:     154 
Inclination:       98.2749 deg
RA of node:        75.6719 deg
Eccentricity:    0.0009862
Arg of perigee:   257.9827 deg
Mean anomaly:     102.0251 deg
Mean motion:   14.31231244 rev/day
Decay rate:    1.0799E-006 rev/day^2
Epoch rev:           67986
Checksum:              336

Satellite: OSCAR 15 (UOSA
Catalog number: 20438
Epoch time:      103031.53832508
Element set:     769 
Inclination:       98.2513 deg
RA of node:        65.2130 deg
Eccentricity:    0.0009041
Arg of perigee:   269.4481 deg
Mean anomaly:      90.5674 deg
Mean motion:   14.30192639 rev/day
Decay rate:    7.4000E-007 rev/day^2
Epoch rev:           67958
Checksum:              314

Satellite: OSCAR 16 (PACS
Catalog number: 20439
Epoch time:      103029.59252921
Element set:     844 
Inclination:       98.3210 deg
RA of node:        85.7243 deg
Eccentricity:    0.0010143
Arg of perigee:   270.3168 deg
Mean anomaly:      89.6862 deg
Mean motion:   14.31463512 rev/day
Decay rate:    1.4900E-006 rev/day^2
Epoch rev:           67967
Checksum:              310

Satellite: OSCAR 17 (DOVE
Catalog number: 20440
Epoch time:      103029.72509271
Element set:     728 
Inclination:       98.3393 deg
RA of node:        89.6988 deg
Eccentricity:    0.0010462
Arg of perigee:   270.0069 deg
Mean anomaly:      89.9920 deg
Mean motion:   14.31740944 rev/day
Decay rate:    1.8299E-006 rev/day^2
Epoch rev:           67976
Checksum:              354

Satellite: OSCAR 18 (WEBE
Catalog number: 20441
Epoch time:      103030.55299849
Element set:     0 
Inclination:       98.3391 deg
RA of node:        89.7184 deg
Eccentricity:    0.0010813
Arg of perigee:   265.9173 deg
Mean anomaly:      94.0775 deg
Mean motion:   14.31545613 rev/day
Decay rate:    1.2399E-006 rev/day^2
Epoch rev:           67986
Checksum:              332

Satellite: OSCAR 19 (LUSA
Catalog number: 20442
Epoch time:      103031.23245576
Element set:     952 
Inclination:       98.3526 deg
RA of node:        93.3622 deg
Eccentricity:    0.0011105
Arg of perigee:   264.0548 deg
Mean anomaly:      95.9368 deg
Mean motion:   14.31708513 rev/day
Decay rate:    1.2199E-006 rev/day^2
Epoch rev:           68001
Checksum:              298

Satellite: JAS 1B (FUJI 2
Catalog number: 20480
Epoch time:      103029.90062061
Element set:     472 
Inclination:       99.0437 deg
RA of node:       356.3464 deg
Eccentricity:    0.0540950
Arg of perigee:    48.3792 deg
Mean anomaly:     316.2360 deg
Mean motion:   12.83328749 rev/day
Decay rate:   -1.8000E-007 rev/day^2
Epoch rev:           60799
Checksum:              310

Satellite: HST
Catalog number: 20580
Epoch time:      103030.56968050
Element set:     313 
Inclination:       28.4654 deg
RA of node:       161.4951 deg
Eccentricity:    0.0004290
Arg of perigee:    70.6207 deg
Mean anomaly:      38.7455 deg
Mean motion:   14.97733196 rev/day
Decay rate:    1.8830E-005 rev/day^2
Epoch rev:           49978
Checksum:              313

Satellite: EUTELSAT 2-F1
Catalog number: 20777
Epoch time:      103028.97737772
Element set:     22 
Inclination:        3.4508 deg
RA of node:        84.7351 deg
Eccentricity:    0.0000758
Arg of perigee:   287.4951 deg
Mean anomaly:     183.4560 deg
Mean motion:    1.00270739 rev/day
Decay rate:   -1.0700E-006 rev/day^2
Epoch rev:            2589
Checksum:              303

Satellite: FENGYUN 1B
Catalog number: 20788
Epoch time:      103030.90904524
Element set:     870 
Inclination:       99.0256 deg
RA of node:        13.2757 deg
Eccentricity:    0.0015096
Arg of perigee:   283.4972 deg
Mean anomaly:      76.4511 deg
Mean motion:   14.02137182 rev/day
Decay rate:   -1.4500E-006 rev/day^2
Epoch rev:           63492
Checksum:              294

Satellite: EUTELSAT 2-F2
Catalog number: 21056
Epoch time:      103028.05627895
Element set:     613 
Inclination:        2.6793 deg
RA of node:        88.1781 deg
Eccentricity:    0.0003016
Arg of perigee:   259.4382 deg
Mean anomaly:     207.9268 deg
Mean motion:    1.00269467 rev/day
Decay rate:    1.1600E-006 rev/day^2
Epoch rev:            3166
Checksum:              296

Satellite: INFORMATOR 1
Catalog number: 21087
Epoch time:      103029.91011900
Element set:     610 
Inclination:       82.9445 deg
RA of node:       331.9635 deg
Eccentricity:    0.0034221
Arg of perigee:   307.6352 deg
Mean anomaly:      52.1697 deg
Mean motion:   13.74924531 rev/day
Decay rate:    8.8000E-007 rev/day^2
Epoch rev:           60218
Checksum:              278

Satellite: COSMOS 2123
Catalog number: 21089
Epoch time:      103029.95755780
Element set:     494 
Inclination:       82.9213 deg
RA of node:       195.9229 deg
Eccentricity:    0.0029641
Arg of perigee:   344.0752 deg
Mean anomaly:      15.9468 deg
Mean motion:   13.74402124 rev/day
Decay rate:    7.0999E-007 rev/day^2
Epoch rev:           60109
Checksum:              438

